,,PressureMeas_1m,,PRMeasQMR101_1,,RHStat155_1m_1,,SRMeasQMS101R_1m,,TAStat155_1m_1,,GenWind_1,,GenWind_1,
2017-04-12, 00:00:06,VALID,917.736,VALID,0.0,VALID,97.83,VALID,-0.007,VALID,20.021,VALID,352.0,VALID,0.409,
2017-04-12, 00:01:06,VALID,917.741,VALID,0.0,VALID,97.81,VALID,0.01,VALID,20.022,VALID,15.0,VALID,0.612,
2017-04-12, 00:02:06,VALID,917.742,VALID,0.0,VALID,97.711,VALID,0.02,VALID,19.989,VALID,353.0,VALID,0.95,
2017-04-12, 00:03:06,VALID,917.757,VALID,0.0,VALID,97.788,VALID,-0.003,VALID,20.004,VALID,4.0,VALID,0.67,
2017-04-12, 00:04:06,VALID,917.75,VALID,0.0,VALID,97.681,VALID,0.005,VALID,19.987,VALID,360.0,VALID,0.937,
2017-04-12, 00:05:06,VALID,917.739,VALID,0.0,VALID,97.758,VALID,-0.009,VALID,20.014,VALID,6.0,VALID,0.611,
2017-04-12, 00:06:06,VALID,917.73,VALID,0.0,VALID,97.771,VALID,-0.009,VALID,20.022,VALID,338.0,VALID,0.088,
2017-04-12, 00:07:06,VALID,917.705,VALID,0.0,VALID,97.741,VALID,-0.014,VALID,20.019,VALID,340.0,VALID,0.003,
2017-04-12, 00:08:06,VALID,917.68,VALID,0.0,VALID,97.803,VALID,-0.001,VALID,20.029,VALID,340.0,VALID,0.0,
2017-04-12, 00:09:06,VALID,917.652,VALID,0.0,VALID,97.76,VALID,-0.023,VALID,20.016,VALID,325.0,VALID,0.026,
2017-04-12, 00:10:06,VALID,917.643,VALID,0.0,VALID,97.832,VALID,-0.012,VALID,20.016,VALID,297.0,VALID,0.066,
2017-04-12, 00:11:06,VALID,917.634,VALID,0.0,VALID,97.721,VALID,-0.011,VALID,19.986,VALID,339.0,VALID,0.179,
2017-04-12, 00:12:06,VALID,917.635,VALID,0.0,VALID,97.869,VALID,-0.005,VALID,20.018,VALID,355.0,VALID,0.088,
2017-04-12, 00:13:06,VALID,917.646,VALID,0.0,VALID,97.866,VALID,-0.01,VALID,20.023,VALID,352.0,VALID,0.0,
2017-04-12, 00:14:06,VALID,917.647,VALID,0.0,VALID,97.924,VALID,0.005,VALID,20.043,VALID,352.0,VALID,0.0,
2017-04-12, 00:15:06,VALID,917.628,VALID,0.0,VALID,97.874,VALID,-0.001,VALID,20.03,VALID,352.0,VALID,0.0,
2017-04-12, 00:16:06,VALID,917.622,VALID,0.0,VALID,97.918,VALID,-0.001,VALID,20.025,VALID,318.0,VALID,0.0,
2017-04-12, 00:17:06,VALID,917.6,VALID,0.0,VALID,97.996,VALID,0.0,VALID,20.047,VALID,272.0,VALID,0.002,
2017-04-12, 00:18:06,VALID,917.59,VALID,0.0,VALID,97.989,VALID,-0.001,VALID,20.053,VALID,261.0,VALID,0.0,
2017-04-12, 00:19:06,VALID,917.568,VALID,0.0,VALID,97.881,VALID,0.009,VALID,19.997,VALID,271.0,VALID,0.076,
2017-04-12, 00:20:06,VALID,917.559,VALID,0.0,VALID,97.763,VALID,0.003,VALID,19.934,VALID,290.0,VALID,0.091,
2017-04-12, 00:21:06,VALID,917.54,VALID,0.0,VALID,97.865,VALID,-0.003,VALID,19.942,VALID,329.0,VALID,0.281,
2017-04-12, 00:22:06,VALID,917.518,VALID,0.0,VALID,97.914,VALID,-0.002,VALID,19.958,VALID,353.0,VALID,0.382,
2017-04-12, 00:23:06,VALID,917.501,VALID,0.0,VALID,97.975,VALID,-0.017,VALID,19.974,VALID,1.0,VALID,0.372,
2017-04-12, 00:24:06,VALID,917.483,VALID,0.0,VALID,97.89,VALID,-0.002,VALID,19.956,VALID,354.0,VALID,0.461,
2017-04-12, 00:25:06,VALID,917.471,VALID,0.0,VALID,97.857,VALID,0.004,VALID,19.94,VALID,344.0,VALID,0.434,
2017-04-12, 00:26:06,VALID,917.463,VALID,0.0,VALID,97.844,VALID,-0.017,VALID,19.923,VALID,345.0,VALID,0.387,
2017-04-12, 00:27:06,VALID,917.454,VALID,0.0,VALID,97.9,VALID,-0.005,VALID,19.939,VALID,327.0,VALID,0.411,
2017-04-12, 00:28:06,VALID,917.425,VALID,0.0,VALID,98.004,VALID,-0.006,VALID,19.971,VALID,330.0,VALID,0.219,
2017-04-12, 00:29:06,VALID,917.415,VALID,0.0,VALID,98.042,VALID,-0.009,VALID,20.002,VALID,324.0,VALID,0.479,
2017-04-12, 00:30:06,VALID,917.382,VALID,0.0,VALID,98.035,VALID,0.0,VALID,20.035,VALID,295.0,VALID,0.459,
2017-04-12, 00:31:06,VALID,917.363,VALID,0.0,VALID,97.989,VALID,-0.002,VALID,20.024,VALID,306.0,VALID,0.111,
2017-04-12, 00:32:06,VALID,917.332,VALID,0.0,VALID,97.8,VALID,-0.008,VALID,19.971,VALID,3.0,VALID,0.43,
2017-04-12, 00:33:06,VALID,917.326,VALID,0.0,VALID,97.817,VALID,0.004,VALID,19.958,VALID,321.0,VALID,0.236,
2017-04-12, 00:34:06,VALID,917.296,VALID,0.0,VALID,97.888,VALID,0.012,VALID,19.974,VALID,349.0,VALID,0.27,
2017-04-12, 00:35:06,VALID,917.278,VALID,0.0,VALID,97.91,VALID,0.003,VALID,19.973,VALID,18.0,VALID,0.778,
2017-04-12, 00:36:06,VALID,917.268,VALID,0.0,VALID,97.884,VALID,-0.02,VALID,19.97,VALID,26.0,VALID,0.955,
2017-04-12, 00:37:06,VALID,917.263,VALID,0.0,VALID,97.841,VALID,-0.019,VALID,19.977,VALID,354.0,VALID,0.645,
2017-04-12, 00:38:06,VALID,917.246,VALID,0.0,VALID,97.69,VALID,-0.013,VALID,19.945,VALID,338.0,VALID,0.302,
2017-04-12, 00:39:06,VALID,917.242,VALID,0.0,VALID,97.703,VALID,-0.036,VALID,19.932,VALID,326.0,VALID,0.438,
2017-04-12, 00:40:06,VALID,917.221,VALID,0.0,VALID,97.854,VALID,-0.022,VALID,19.974,VALID,305.0,VALID,0.366,
2017-04-12, 00:41:06,VALID,917.183,VALID,0.0,VALID,97.874,VALID,-0.007,VALID,20.001,VALID,353.0,VALID,1.05,
2017-04-12, 00:42:06,VALID,917.167,VALID,0.0,VALID,97.825,VALID,0.002,VALID,20.028,VALID,1.0,VALID,0.552,
2017-04-12, 00:43:06,VALID,917.151,VALID,0.0,VALID,97.711,VALID,-0.002,VALID,20.047,VALID,14.0,VALID,0.991,
2017-04-12, 00:44:06,VALID,917.144,VALID,0.0,VALID,97.553,VALID,-0.011,VALID,20.038,VALID,350.0,VALID,0.336,
2017-04-12, 00:45:06,VALID,917.135,VALID,0.0,VALID,97.566,VALID,-0.017,VALID,20.038,VALID,330.0,VALID,0.396,
2017-04-12, 00:46:06,VALID,917.134,VALID,0.0,VALID,97.605,VALID,-0.016,VALID,20.037,VALID,355.0,VALID,0.249,
2017-04-12, 00:47:06,VALID,917.129,VALID,0.0,VALID,97.595,VALID,-0.004,VALID,20.04,VALID,358.0,VALID,0.374,
2017-04-12, 00:48:06,VALID,917.132,VALID,0.0,VALID,97.514,VALID,-0.011,VALID,20.023,VALID,340.0,VALID,0.675,
2017-04-12, 00:49:06,VALID,917.12,VALID,0.0,VALID,97.532,VALID,-0.029,VALID,20.019,VALID,302.0,VALID,0.196,
2017-04-12, 00:50:06,VALID,917.096,VALID,0.0,VALID,97.585,VALID,-0.017,VALID,20.014,VALID,249.0,VALID,0.191,
2017-04-12, 00:51:06,VALID,917.061,VALID,0.0,VALID,97.676,VALID,-0.003,VALID,20.014,VALID,250.0,VALID,0.073,
2017-04-12, 00:52:06,VALID,917.02,VALID,0.0,VALID,97.856,VALID,0.004,VALID,20.03,VALID,268.0,VALID,0.058,
2017-04-12, 00:53:06,VALID,917.004,VALID,0.0,VALID,97.924,VALID,0.013,VALID,20.05,VALID,360.0,VALID,0.319,
2017-04-12, 00:54:06,VALID,917.003,VALID,0.0,VALID,97.791,VALID,0.005,VALID,19.991,VALID,354.0,VALID,0.164,
2017-04-12, 00:55:06,VALID,917.014,VALID,0.0,VALID,97.785,VALID,-0.005,VALID,19.968,VALID,310.0,VALID,0.175,
2017-04-12, 00:56:06,VALID,917.017,VALID,0.0,VALID,97.882,VALID,-0.005,VALID,19.971,VALID,310.0,VALID,0.0,
2017-04-12, 00:57:06,VALID,917.023,VALID,0.0,VALID,97.918,VALID,-0.005,VALID,19.97,VALID,310.0,VALID,0.05,
2017-04-12, 00:58:06,VALID,917.017,VALID,0.0,VALID,97.918,VALID,-0.005,VALID,19.962,VALID,333.0,VALID,0.266,
2017-04-12, 00:59:06,VALID,917.013,VALID,0.0,VALID,97.971,VALID,0.015,VALID,19.964,VALID,3.0,VALID,0.375,
2017-04-12, 01:00:06,VALID,917.025,VALID,0.0,VALID,97.941,VALID,0.009,VALID,19.941,VALID,360.0,VALID,0.418,
2017-04-12, 01:01:06,VALID,917.016,VALID,0.0,VALID,97.941,VALID,0.021,VALID,19.925,VALID,345.0,VALID,0.444,
2017-04-12, 01:02:06,VALID,916.982,VALID,0.0,VALID,97.929,VALID,0.008,VALID,19.914,VALID,351.0,VALID,0.541,
2017-04-12, 01:03:06,VALID,916.981,VALID,0.0,VALID,97.942,VALID,0.002,VALID,19.902,VALID,347.0,VALID,0.535,
2017-04-12, 01:04:06,VALID,916.961,VALID,0.0,VALID,97.939,VALID,0.032,VALID,19.914,VALID,354.0,VALID,0.475,
2017-04-12, 01:05:06,VALID,916.962,VALID,0.0,VALID,97.943,VALID,0.013,VALID,19.923,VALID,355.0,VALID,0.2,
2017-04-12, 01:06:06,VALID,916.965,VALID,0.0,VALID,97.974,VALID,0.014,VALID,19.943,VALID,358.0,VALID,0.277,
2017-04-12, 01:07:06,VALID,916.959,VALID,0.0,VALID,97.939,VALID,0.005,VALID,19.938,VALID,349.0,VALID,0.011,
2017-04-12, 01:08:06,VALID,916.95,VALID,0.0,VALID,97.916,VALID,0.022,VALID,19.941,VALID,333.0,VALID,0.056,
2017-04-12, 01:09:06,VALID,916.93,VALID,0.0,VALID,97.982,VALID,0.03,VALID,19.967,VALID,334.0,VALID,0.0,
2017-04-12, 01:10:06,VALID,916.909,VALID,0.0,VALID,97.963,VALID,0.015,VALID,19.977,VALID,334.0,VALID,0.0,
2017-04-12, 01:11:06,VALID,916.887,VALID,0.0,VALID,97.942,VALID,0.029,VALID,19.966,VALID,342.0,VALID,0.086,
2017-04-12, 01:12:06,VALID,916.88,VALID,0.0,VALID,97.984,VALID,0.019,VALID,19.969,VALID,343.0,VALID,0.002,
2017-04-12, 01:13:06,VALID,916.875,VALID,0.0,VALID,97.961,VALID,0.009,VALID,19.973,VALID,343.0,VALID,0.002,
2017-04-12, 01:14:06,VALID,916.862,VALID,0.0,VALID,97.987,VALID,0.004,VALID,19.983,VALID,345.0,VALID,0.116,
2017-04-12, 01:15:06,VALID,916.859,VALID,0.0,VALID,97.987,VALID,0.027,VALID,19.987,VALID,359.0,VALID,0.25,
2017-04-12, 01:16:06,VALID,916.847,VALID,0.0,VALID,97.947,VALID,0.018,VALID,19.98,VALID,360.0,VALID,0.077,
2017-04-12, 01:17:06,VALID,916.849,VALID,0.0,VALID,97.979,VALID,0.023,VALID,19.984,VALID,360.0,VALID,0.006,
2017-04-12, 01:18:06,VALID,916.836,VALID,0.0,VALID,97.914,VALID,-0.0,VALID,19.966,VALID,339.0,VALID,0.03,
2017-04-12, 01:19:06,VALID,916.821,VALID,0.0,VALID,97.922,VALID,0.001,VALID,19.96,VALID,312.0,VALID,0.022,
2017-04-12, 01:20:06,VALID,916.807,VALID,0.0,VALID,97.922,VALID,0.008,VALID,19.956,VALID,313.0,VALID,0.137,
2017-04-12, 01:21:06,VALID,916.799,VALID,0.0,VALID,97.893,VALID,-0.017,VALID,19.951,VALID,308.0,VALID,0.0,
2017-04-12, 01:22:06,VALID,916.786,VALID,0.0,VALID,97.925,VALID,-0.031,VALID,19.958,VALID,308.0,VALID,0.0,
2017-04-12, 01:23:06,VALID,916.78,VALID,0.0,VALID,97.878,VALID,-0.023,VALID,19.945,VALID,308.0,VALID,0.0,
2017-04-12, 01:24:06,VALID,916.763,VALID,0.0,VALID,97.917,VALID,-0.023,VALID,19.949,VALID,308.0,VALID,0.0,
2017-04-12, 01:25:06,VALID,916.755,VALID,0.0,VALID,97.904,VALID,-0.026,VALID,19.953,VALID,308.0,VALID,0.0,
2017-04-12, 01:26:06,VALID,916.744,VALID,0.0,VALID,97.929,VALID,-0.026,VALID,19.959,VALID,308.0,VALID,0.0,
2017-04-12, 01:27:06,VALID,916.733,VALID,0.0,VALID,97.917,VALID,-0.026,VALID,19.962,VALID,308.0,VALID,0.0,
2017-04-12, 01:28:06,VALID,916.713,VALID,0.0,VALID,97.933,VALID,-0.044,VALID,19.973,VALID,308.0,VALID,0.0,
2017-04-12, 01:29:06,VALID,916.704,VALID,0.0,VALID,97.883,VALID,-0.029,VALID,19.976,VALID,308.0,VALID,0.001,
2017-04-12, 01:30:06,VALID,916.677,VALID,0.0,VALID,97.881,VALID,-0.036,VALID,19.989,VALID,316.0,VALID,0.095,
2017-04-12, 01:31:06,VALID,916.677,VALID,0.0,VALID,97.749,VALID,-0.033,VALID,19.97,VALID,339.0,VALID,0.139,
2017-04-12, 01:32:06,VALID,916.663,VALID,0.0,VALID,97.77,VALID,-0.039,VALID,19.975,VALID,350.0,VALID,0.213,
2017-04-12, 01:33:06,VALID,916.659,VALID,0.0,VALID,97.662,VALID,-0.035,VALID,19.945,VALID,2.0,VALID,0.143,
2017-04-12, 01:34:06,VALID,916.651,VALID,0.0,VALID,97.632,VALID,-0.028,VALID,19.923,VALID,20.0,VALID,0.304,
2017-04-12, 01:35:06,VALID,916.638,VALID,0.0,VALID,97.543,VALID,-0.051,VALID,19.881,VALID,25.0,VALID,0.252,
2017-04-12, 01:36:06,VALID,916.621,VALID,0.0,VALID,97.519,VALID,0.01,VALID,19.841,VALID,24.0,VALID,0.359,
2017-04-12, 01:37:06,VALID,916.595,VALID,0.0,VALID,97.527,VALID,0.019,VALID,19.823,VALID,17.0,VALID,0.352,
2017-04-12, 01:38:06,VALID,916.575,VALID,0.0,VALID,97.535,VALID,0.017,VALID,19.803,VALID,359.0,VALID,0.428,
2017-04-12, 01:39:06,VALID,916.567,VALID,0.0,VALID,97.564,VALID,0.019,VALID,19.804,VALID,340.0,VALID,0.213,
2017-04-12, 01:40:06,VALID,916.565,VALID,0.0,VALID,97.602,VALID,0.02,VALID,19.804,VALID,325.0,VALID,0.332,
2017-04-12, 01:41:06,VALID,916.576,VALID,0.0,VALID,97.608,VALID,0.018,VALID,19.82,VALID,286.0,VALID,0.061,
2017-04-12, 01:42:06,VALID,916.575,VALID,0.0,VALID,97.59,VALID,0.027,VALID,19.82,VALID,283.0,VALID,0.013,
2017-04-12, 01:43:06,VALID,916.574,VALID,0.0,VALID,97.611,VALID,0.028,VALID,19.823,VALID,283.0,VALID,0.0,
2017-04-12, 01:44:06,VALID,916.567,VALID,0.0,VALID,97.642,VALID,0.018,VALID,19.83,VALID,283.0,VALID,0.0,
2017-04-12, 01:45:06,VALID,916.556,VALID,0.0,VALID,97.716,VALID,0.016,VALID,19.84,VALID,283.0,VALID,0.034,
2017-04-12, 01:46:06,VALID,916.519,VALID,0.0,VALID,97.625,VALID,0.007,VALID,19.858,VALID,331.0,VALID,0.249,
2017-04-12, 01:47:06,VALID,916.493,VALID,0.0,VALID,97.54,VALID,0.026,VALID,19.864,VALID,352.0,VALID,0.343,
2017-04-12, 01:48:06,VALID,916.469,VALID,0.0,VALID,97.394,VALID,0.041,VALID,19.85,VALID,357.0,VALID,0.422,
2017-04-12, 01:49:06,VALID,916.451,VALID,0.0,VALID,97.302,VALID,0.01,VALID,19.826,VALID,358.0,VALID,0.431,
2017-04-12, 01:50:06,VALID,916.444,VALID,0.0,VALID,97.211,VALID,0.014,VALID,19.803,VALID,360.0,VALID,0.584,
2017-04-12, 01:51:06,VALID,916.437,VALID,0.0,VALID,97.237,VALID,0.0,VALID,19.808,VALID,358.0,VALID,0.308,
2017-04-12, 01:52:06,VALID,916.43,VALID,0.0,VALID,97.191,VALID,0.007,VALID,19.791,VALID,1.0,VALID,0.249,
2017-04-12, 01:53:06,VALID,916.413,VALID,0.0,VALID,97.165,VALID,-0.001,VALID,19.771,VALID,3.0,VALID,0.297,
2017-04-12, 01:54:06,VALID,916.416,VALID,0.0,VALID,97.096,VALID,-0.008,VALID,19.746,VALID,20.0,VALID,0.515,
2017-04-12, 01:55:06,VALID,916.408,VALID,0.0,VALID,97.028,VALID,-0.012,VALID,19.729,VALID,20.0,VALID,0.473,
2017-04-12, 01:56:06,VALID,916.393,VALID,0.0,VALID,97.016,VALID,0.007,VALID,19.714,VALID,7.0,VALID,0.362,
2017-04-12, 01:57:06,VALID,916.378,VALID,0.0,VALID,96.951,VALID,-0.008,VALID,19.696,VALID,4.0,VALID,0.441,
2017-04-12, 01:58:06,VALID,916.357,VALID,0.0,VALID,96.952,VALID,-0.017,VALID,19.689,VALID,5.0,VALID,0.375,
2017-04-12, 01:59:06,VALID,916.329,VALID,0.0,VALID,96.971,VALID,-0.01,VALID,19.683,VALID,5.0,VALID,0.328,
2017-04-12, 02:00:06,VALID,916.322,VALID,0.0,VALID,96.984,VALID,0.002,VALID,19.684,VALID,5.0,VALID,0.182,
2017-04-12, 02:01:06,VALID,916.315,VALID,0.0,VALID,97.069,VALID,-0.012,VALID,19.698,VALID,5.0,VALID,0.197,
2017-04-12, 02:02:06,VALID,916.313,VALID,0.0,VALID,96.966,VALID,-0.004,VALID,19.698,VALID,9.0,VALID,0.259,
2017-04-12, 02:03:06,VALID,916.319,VALID,0.0,VALID,96.912,VALID,-0.004,VALID,19.686,VALID,13.0,VALID,0.047,
2017-04-12, 02:04:06,VALID,916.306,VALID,0.0,VALID,96.996,VALID,0.006,VALID,19.683,VALID,13.0,VALID,0.016,
2017-04-12, 02:05:06,VALID,916.298,VALID,0.0,VALID,97.02,VALID,-0.024,VALID,19.685,VALID,13.0,VALID,0.0,
2017-04-12, 02:06:06,VALID,916.284,VALID,0.0,VALID,97.076,VALID,0.01,VALID,19.687,VALID,13.0,VALID,0.001,
2017-04-12, 02:07:06,VALID,916.278,VALID,0.0,VALID,97.027,VALID,0.017,VALID,19.674,VALID,13.0,VALID,0.0,
2017-04-12, 02:08:06,VALID,916.265,VALID,0.0,VALID,97.072,VALID,0.016,VALID,19.665,VALID,13.0,VALID,0.0,
2017-04-12, 02:09:06,VALID,916.252,VALID,0.0,VALID,97.129,VALID,0.016,VALID,19.663,VALID,13.0,VALID,0.0,
2017-04-12, 02:10:06,VALID,916.235,VALID,0.0,VALID,97.194,VALID,0.016,VALID,19.66,VALID,13.0,VALID,0.0,
2017-04-12, 02:11:06,VALID,916.236,VALID,0.0,VALID,97.053,VALID,0.008,VALID,19.632,VALID,13.0,VALID,0.0,
2017-04-12, 02:12:06,VALID,916.249,VALID,0.0,VALID,96.983,VALID,0.014,VALID,19.611,VALID,13.0,VALID,0.0,
2017-04-12, 02:13:06,VALID,916.258,VALID,0.0,VALID,97.06,VALID,0.017,VALID,19.607,VALID,13.0,VALID,0.0,
2017-04-12, 02:14:06,VALID,916.276,VALID,0.0,VALID,97.077,VALID,0.004,VALID,19.595,VALID,13.0,VALID,0.0,
2017-04-12, 02:15:06,VALID,916.281,VALID,0.0,VALID,97.147,VALID,0.011,VALID,19.597,VALID,13.0,VALID,0.0,
2017-04-12, 02:16:06,VALID,916.278,VALID,0.0,VALID,97.227,VALID,0.028,VALID,19.596,VALID,13.0,VALID,0.0,
2017-04-12, 02:17:06,VALID,916.269,VALID,0.0,VALID,97.338,VALID,0.034,VALID,19.607,VALID,13.0,VALID,0.0,
2017-04-12, 02:18:06,VALID,916.255,VALID,0.0,VALID,97.366,VALID,0.019,VALID,19.611,VALID,12.0,VALID,0.0,
2017-04-12, 02:19:06,VALID,916.261,VALID,0.0,VALID,97.241,VALID,0.027,VALID,19.597,VALID,11.0,VALID,0.0,
2017-04-12, 02:20:06,VALID,916.254,VALID,0.0,VALID,97.228,VALID,0.029,VALID,19.606,VALID,11.0,VALID,0.004,
2017-04-12, 02:21:06,VALID,916.256,VALID,0.0,VALID,97.248,VALID,-0.005,VALID,19.619,VALID,343.0,VALID,0.02,
2017-04-12, 02:22:06,VALID,916.251,VALID,0.0,VALID,97.296,VALID,-0.018,VALID,19.647,VALID,298.0,VALID,0.125,
2017-04-12, 02:23:06,VALID,916.251,VALID,0.0,VALID,97.243,VALID,-0.012,VALID,19.676,VALID,278.0,VALID,0.286,
2017-04-12, 02:24:06,VALID,916.236,VALID,0.0,VALID,97.235,VALID,-0.015,VALID,19.685,VALID,257.0,VALID,0.188,
2017-04-12, 02:25:06,VALID,916.212,VALID,0.0,VALID,97.309,VALID,0.006,VALID,19.685,VALID,258.0,VALID,0.182,
2017-04-12, 02:26:06,VALID,916.193,VALID,0.0,VALID,97.487,VALID,-0.019,VALID,19.714,VALID,260.0,VALID,0.12,
2017-04-12, 02:27:06,VALID,916.164,VALID,0.0,VALID,97.526,VALID,0.002,VALID,19.734,VALID,264.0,VALID,0.155,
2017-04-12, 02:28:06,VALID,916.137,VALID,0.0,VALID,97.526,VALID,-0.012,VALID,19.74,VALID,267.0,VALID,0.098,
2017-04-12, 02:29:06,VALID,916.12,VALID,0.0,VALID,97.489,VALID,0.004,VALID,19.727,VALID,277.0,VALID,0.105,
2017-04-12, 02:30:06,VALID,916.112,VALID,0.0,VALID,97.519,VALID,0.012,VALID,19.723,VALID,280.0,VALID,0.017,
2017-04-12, 02:31:06,VALID,916.107,VALID,0.0,VALID,97.598,VALID,-0.014,VALID,19.731,VALID,280.0,VALID,0.085,
2017-04-12, 02:32:06,VALID,916.096,VALID,0.0,VALID,97.634,VALID,-0.007,VALID,19.736,VALID,280.0,VALID,0.166,
2017-04-12, 02:33:06,VALID,916.095,VALID,0.0,VALID,97.615,VALID,-0.022,VALID,19.73,VALID,288.0,VALID,0.112,
2017-04-12, 02:34:06,VALID,916.075,VALID,0.0,VALID,97.585,VALID,0.007,VALID,19.699,VALID,285.0,VALID,0.046,
2017-04-12, 02:35:06,VALID,916.052,VALID,0.0,VALID,97.688,VALID,0.01,VALID,19.695,VALID,309.0,VALID,0.181,
2017-04-12, 02:36:06,VALID,916.031,VALID,0.0,VALID,97.481,VALID,-0.006,VALID,19.63,VALID,351.0,VALID,0.424,
2017-04-12, 02:37:06,VALID,916.02,VALID,0.0,VALID,97.593,VALID,-0.015,VALID,19.629,VALID,7.0,VALID,0.454,
2017-04-12, 02:38:06,VALID,916.011,VALID,0.0,VALID,97.566,VALID,-0.015,VALID,19.599,VALID,358.0,VALID,0.323,
2017-04-12, 02:39:06,VALID,915.999,VALID,0.0,VALID,97.461,VALID,-0.007,VALID,19.546,VALID,340.0,VALID,0.185,
2017-04-12, 02:40:06,VALID,915.993,VALID,0.0,VALID,97.519,VALID,-0.02,VALID,19.544,VALID,334.0,VALID,0.408,
2017-04-12, 02:41:06,VALID,915.972,VALID,0.0,VALID,97.548,VALID,-0.013,VALID,19.539,VALID,346.0,VALID,0.669,
2017-04-12, 02:42:06,VALID,915.962,VALID,0.0,VALID,97.523,VALID,-0.015,VALID,19.511,VALID,359.0,VALID,0.654,
2017-04-12, 02:43:06,VALID,915.948,VALID,0.0,VALID,97.452,VALID,-0.019,VALID,19.468,VALID,353.0,VALID,0.682,
2017-04-12, 02:44:06,VALID,915.95,VALID,0.0,VALID,97.492,VALID,-0.014,VALID,19.456,VALID,354.0,VALID,0.515,
2017-04-12, 02:45:06,VALID,915.953,VALID,0.0,VALID,97.553,VALID,-0.005,VALID,19.466,VALID,5.0,VALID,0.379,
2017-04-12, 02:46:06,VALID,915.957,VALID,0.0,VALID,97.477,VALID,-0.005,VALID,19.463,VALID,350.0,VALID,0.459,
2017-04-12, 02:47:06,VALID,915.95,VALID,0.0,VALID,97.489,VALID,-0.009,VALID,19.47,VALID,344.0,VALID,0.304,
2017-04-12, 02:48:06,VALID,915.947,VALID,0.0,VALID,97.478,VALID,-0.004,VALID,19.481,VALID,348.0,VALID,0.319,
2017-04-12, 02:49:06,VALID,915.925,VALID,0.0,VALID,97.423,VALID,-0.019,VALID,19.468,VALID,10.0,VALID,0.529,
2017-04-12, 02:50:06,VALID,915.896,VALID,0.0,VALID,97.347,VALID,-0.005,VALID,19.448,VALID,19.0,VALID,0.75,
2017-04-12, 02:51:06,VALID,915.889,VALID,0.0,VALID,97.359,VALID,-0.011,VALID,19.442,VALID,28.0,VALID,0.65,
2017-04-12, 02:52:06,VALID,915.854,VALID,0.0,VALID,97.409,VALID,-0.009,VALID,19.447,VALID,34.0,VALID,0.868,
2017-04-12, 02:53:06,VALID,915.846,VALID,0.0,VALID,97.393,VALID,0.012,VALID,19.445,VALID,18.0,VALID,0.71,
2017-04-12, 02:54:06,VALID,915.858,VALID,0.0,VALID,97.306,VALID,0.002,VALID,19.417,VALID,12.0,VALID,0.692,
2017-04-12, 02:55:06,VALID,915.845,VALID,0.0,VALID,97.343,VALID,0.009,VALID,19.398,VALID,5.0,VALID,0.807,
2017-04-12, 02:56:06,VALID,915.871,VALID,0.0,VALID,97.353,VALID,-0.004,VALID,19.399,VALID,360.0,VALID,0.535,
2017-04-12, 02:57:06,VALID,915.884,VALID,0.0,VALID,97.378,VALID,0.004,VALID,19.405,VALID,350.0,VALID,0.513,
2017-04-12, 02:58:06,VALID,915.881,VALID,0.0,VALID,97.407,VALID,0.005,VALID,19.395,VALID,351.0,VALID,0.68,
2017-04-12, 02:59:06,VALID,915.888,VALID,0.0,VALID,97.487,VALID,0.001,VALID,19.391,VALID,352.0,VALID,0.572,
2017-04-12, 03:00:06,VALID,915.898,VALID,0.0,VALID,97.509,VALID,-0.004,VALID,19.374,VALID,353.0,VALID,0.346,
2017-04-12, 03:01:06,VALID,915.904,VALID,0.0,VALID,97.593,VALID,-0.008,VALID,19.379,VALID,358.0,VALID,0.166,
2017-04-12, 03:02:06,VALID,915.916,VALID,0.0,VALID,97.572,VALID,-0.002,VALID,19.358,VALID,7.0,VALID,0.121,
2017-04-12, 03:03:06,VALID,915.929,VALID,0.0,VALID,97.605,VALID,-0.009,VALID,19.345,VALID,7.0,VALID,0.157,
2017-04-12, 03:04:06,VALID,915.925,VALID,0.0,VALID,97.659,VALID,-0.0,VALID,19.348,VALID,7.0,VALID,0.093,
2017-04-12, 03:05:06,VALID,915.921,VALID,0.0,VALID,97.696,VALID,-0.001,VALID,19.356,VALID,7.0,VALID,0.089,
2017-04-12, 03:06:06,VALID,915.937,VALID,0.0,VALID,97.551,VALID,0.003,VALID,19.318,VALID,7.0,VALID,0.04,
2017-04-12, 03:07:06,VALID,915.929,VALID,0.0,VALID,97.558,VALID,0.006,VALID,19.286,VALID,7.0,VALID,0.015,
2017-04-12, 03:08:06,VALID,915.929,VALID,0.0,VALID,97.569,VALID,0.003,VALID,19.272,VALID,7.0,VALID,0.027,
2017-04-12, 03:09:07,VALID,915.919,VALID,0.0,VALID,97.622,VALID,0.0,VALID,19.261,VALID,7.0,VALID,0.01,
2017-04-12, 03:10:07,VALID,915.9,VALID,0.0,VALID,97.734,VALID,0.007,VALID,19.268,VALID,8.0,VALID,0.098,
2017-04-12, 03:11:07,VALID,915.892,VALID,0.0,VALID,97.79,VALID,-0.001,VALID,19.274,VALID,113.0,VALID,0.262,
2017-04-12, 03:12:07,VALID,915.876,VALID,0.0,VALID,97.835,VALID,-0.004,VALID,19.278,VALID,118.0,VALID,0.281,
2017-04-12, 03:13:07,VALID,915.859,VALID,0.0,VALID,97.882,VALID,-0.012,VALID,19.289,VALID,118.0,VALID,0.213,
2017-04-12, 03:14:07,VALID,915.857,VALID,0.0,VALID,97.918,VALID,-0.002,VALID,19.287,VALID,118.0,VALID,0.081,
2017-04-12, 03:15:07,VALID,915.844,VALID,0.0,VALID,97.874,VALID,-0.002,VALID,19.262,VALID,118.0,VALID,0.004,
2017-04-12, 03:16:07,VALID,915.852,VALID,0.0,VALID,97.872,VALID,0.007,VALID,19.243,VALID,118.0,VALID,0.0,
2017-04-12, 03:17:07,VALID,915.862,VALID,0.0,VALID,97.883,VALID,0.014,VALID,19.245,VALID,118.0,VALID,0.001,
2017-04-12, 03:18:07,VALID,915.859,VALID,0.0,VALID,97.868,VALID,0.004,VALID,19.223,VALID,119.0,VALID,0.0,
2017-04-12, 03:19:07,VALID,915.861,VALID,0.0,VALID,97.898,VALID,0.001,VALID,19.224,VALID,120.0,VALID,0.0,
2017-04-12, 03:20:07,VALID,915.865,VALID,0.0,VALID,97.866,VALID,0.004,VALID,19.199,VALID,120.0,VALID,0.0,
2017-04-12, 03:21:07,VALID,915.853,VALID,0.0,VALID,97.973,VALID,-0.001,VALID,19.232,VALID,120.0,VALID,0.014,
2017-04-12, 03:22:07,VALID,915.855,VALID,0.0,VALID,98.004,VALID,-0.017,VALID,19.236,VALID,120.0,VALID,0.0,
2017-04-12, 03:23:07,VALID,915.842,VALID,0.0,VALID,98.03,VALID,-0.0,VALID,19.24,VALID,120.0,VALID,0.0,
2017-04-12, 03:24:07,VALID,915.846,VALID,0.0,VALID,98.025,VALID,0.0,VALID,19.241,VALID,118.0,VALID,0.071,
2017-04-12, 03:25:07,VALID,915.837,VALID,0.0,VALID,98.006,VALID,0.0,VALID,19.235,VALID,102.0,VALID,0.09,
2017-04-12, 03:26:07,VALID,915.851,VALID,0.0,VALID,97.923,VALID,-0.008,VALID,19.218,VALID,13.0,VALID,0.213,
2017-04-12, 03:27:07,VALID,915.844,VALID,0.0,VALID,97.926,VALID,-0.0,VALID,19.234,VALID,13.0,VALID,0.046,
2017-04-12, 03:28:07,VALID,915.842,VALID,0.0,VALID,97.921,VALID,-0.005,VALID,19.252,VALID,285.0,VALID,0.057,
2017-04-12, 03:29:07,VALID,915.837,VALID,0.0,VALID,97.822,VALID,-0.002,VALID,19.248,VALID,226.0,VALID,0.165,
2017-04-12, 03:30:07,VALID,915.835,VALID,0.0,VALID,97.782,VALID,-0.011,VALID,19.233,VALID,228.0,VALID,0.037,
2017-04-12, 03:31:07,VALID,915.845,VALID,0.0,VALID,97.807,VALID,0.0,VALID,19.248,VALID,228.0,VALID,0.0,
2017-04-12, 03:32:07,VALID,915.837,VALID,0.0,VALID,97.752,VALID,-0.013,VALID,19.247,VALID,228.0,VALID,0.0,
2017-04-12, 03:33:07,VALID,915.833,VALID,0.0,VALID,97.209,VALID,-0.006,VALID,19.117,VALID,228.0,VALID,0.001,
2017-04-12, 03:34:07,VALID,915.844,VALID,0.0,VALID,96.638,VALID,-0.002,VALID,18.968,VALID,245.0,VALID,0.047,
2017-04-12, 03:35:07,VALID,915.84,VALID,0.0,VALID,97.01,VALID,-0.005,VALID,18.96,VALID,311.0,VALID,0.08,
2017-04-12, 03:36:07,VALID,915.855,VALID,0.0,VALID,97.342,VALID,-0.019,VALID,18.986,VALID,285.0,VALID,0.087,
2017-04-12, 03:37:07,VALID,915.878,VALID,0.0,VALID,97.862,VALID,-0.004,VALID,19.124,VALID,256.0,VALID,0.245,
2017-04-12, 03:38:07,VALID,915.91,VALID,0.0,VALID,98.007,VALID,0.0,VALID,19.231,VALID,253.0,VALID,0.377,
2017-04-12, 03:39:07,VALID,915.916,VALID,0.0,VALID,98.04,VALID,-0.025,VALID,19.297,VALID,255.0,VALID,0.604,